アマラウ彗星

C/2020 O2 ( Amaral )

English version
Home page
Updated on October 14, 2023

---------------------------------------------------------------------

・ プロフィール

発見日 2020年7月23日
発見光度 18.1等
発見者 Leonardo S. Amaral (Rio de Janeiro, Brazil)

・ 写真集

・ 軌道要素

Epoch 2023 Feb. 25.0 TT = JDT 2460000.5
T 2021 Aug. 28.57602 TT                                 Rudenko
q   4.8625087            (2000.0)            P               Q
z  -0.0003602      Peri.   10.30950     -0.17063657     +0.34073949
 +/-0.0000006      Node   256.76990     -0.95808530     -0.27651365
e   1.0017517      Incl.   71.75940     -0.23012111     +0.89857487
>From 1589 observations 2020 July 23-2023 June 5, mean residual 0".5.

・ 星図

・ 光度変化

        m1 = 0.5 + 5 logΔ + 17.5 log r(t - 80)

---------------------------------------------------------------------

軌道要素はM.P.E.C. 2023-L37に掲載されたものです。
星図はステラナビゲータ Ver.10 (アストロアーツ) で作成したものです。
光度グラフはComet for Windowsで作成したものです。

---------------------------------------------------------------------

Copyright(C) Seiichi Yoshida (comet@aerith.net). All rights reserved.